Simultaneous Nadir Overpasses (SNOs) Predictions

Prediction of SNOs between AQUA and METOP-B Satellite Orbit:

Table of predicted SNOs for the next 14.0 days since TLE Epoch: 5/5/2017
Index Date (AQUA) Time (AQUA) Lat,Lon (AQUA) SZA (AQUA ) Date (METOP-B) Time (METOP-B) Lat,Lon (METOP-B) SZA (METOP-B ) Distance(km) Time Diff (sec)
1 05/07/2017 14:53:45 -73.72, 131.04 123.29 05/07/2017 14:52:49 -73.73, 130.98 123.27 2.07 56
2 05/07/2017 15:43:14 73.79, -61.48 56.78 05/07/2017 15:43:27 73.80, -61.52 56.79 1.50 13
3 05/07/2017 16:32:50 -74.34, 104.92 122.65 05/07/2017 16:33:58 -74.35, 107.16 122.71 67.35 68
4 05/10/2017 10:27:58 -73.76,-162.59 124.00 05/10/2017 10:27:09 -73.77,-162.52 123.99 2.53 49
5 05/10/2017 11:17:27 73.83, 4.88 56.07 05/10/2017 11:17:47 73.83, 4.97 56.07 2.71 20
6 05/13/2017 06:02:11 -73.75, -96.13 124.72 05/13/2017 06:01:31 -73.76, -96.13 124.70 1.67 40
7 05/13/2017 06:51:40 73.82, 71.35 55.35 05/13/2017 06:52:09 73.83, 71.36 55.35 0.92 29
8 05/16/2017 01:36:24 -73.75, -29.68 125.40 05/16/2017 01:35:53 -73.77, -29.72 125.37 2.47 31
9 05/16/2017 02:25:53 73.82, 137.79 54.68 05/16/2017 02:26:31 73.83, 137.77 54.69 1.39 38
10 05/18/2017 21:10:36 -73.75, 36.75 126.02 05/18/2017 21:10:14 -73.77, 36.70 125.99 3.04 22
11 05/18/2017 22:00:05 73.83,-155.77 54.06 05/18/2017 22:00:52 73.84,-155.81 54.07 1.82 47




NCC Satellite Simultaneous Nadir Overpasses (SNOs) Prediction Service
